| time (UTC) | temp F | wind direction | speed MPH | gust MPH | rain 1hr in | rain 24hr in | rain mn in | humidity % | barometer mb |
| 20260903063614 | 71 | 153 | 13.0 | 21.0 | 0.00 | 0.00 | 0.00 | 22 | 1014.7 |
| 20260903063109 | 71 | 140 | 18.0 | 19.0 | 0.00 | 0.00 | 0.00 | 23 | 1014.7 |
| 20260903062605 | 71 | 134 | 19.0 | 22.0 | 0.00 | 0.00 | 0.00 | 23 | 1014.7 |
| 20260903062100 | 70 | 140 | 12.0 | 19.0 | 0.00 | 0.00 | 0.00 | 24 | 1014.8 |
| 20260903061555 | 70 | 160 | 10.0 | 20.0 | 0.00 | 0.00 | 0.00 | 25 | 1014.4 |
| 20260903061055 | 71 | 165 | 12.0 | 17.0 | 0.00 | 0.00 | 0.00 | 24 | 1014.4 |
| 20260903060554 | 70 | 156 | 9.0 | 20.0 | 0.00 | 0.00 | 0.00 | 25 | 1014.4 |
| 20260903060050 | 71 | 152 | 8.0 | 15.0 | 0.00 | 0.00 | 0.00 | 28 | 1014.1 |
| 20260903055547 | 72 | 152 | 10.0 | 19.0 | 0.00 | 0.00 | 0.00 | 23 | 1014.2 |
| 20260903055046 | 72 | 141 | 13.0 | 20.0 | 0.00 | 0.00 | 0.00 | 21 | 1014.4 |
| 20260903054541 | 72 | 157 | 8.0 | 18.0 | 0.00 | 0.00 | 0.00 | 21 | 1014.6 |
| 20260903054037 | 72 | 164 | 8.0 | 18.0 | 0.00 | 0.00 | 0.00 | 21 | 1014.6 |
| 20260903053532 | 72 | 177 | 8.0 | 15.0 | 0.00 | 0.00 | 0.00 | 20 | 1014.4 |
| 20260903053029 | 73 | 152 | 9.0 | 17.0 | 0.00 | 0.00 | 0.00 | 20 | 1014.1 |
| 20260903052524 | 73 | 148 | 12.0 | 18.0 | 0.00 | 0.00 | 0.00 | 21 | 1014.6 |
| 20260903052020 | 73 | 145 | 15.0 | 17.0 | 0.00 | 0.00 | 0.00 | 20 | 1014.5 |
| 20260903051519 | 73 | 169 | 10.0 | 17.0 | 0.00 | 0.00 | 0.00 | 20 | 1014.5 |
| 20260903051015 | 73 | 142 | 12.0 | 17.0 | 0.00 | 0.00 | 0.00 | 20 | 1014.6 |
| 20260903050514 | 73 | 154 | 10.0 | 14.0 | 0.00 | 0.00 | 0.00 | 20 | 1014.5 |
| 20260903050010 | 73 | 149 | 14.0 | 17.0 | 0.00 | 0.00 | 0.00 | 19 | 1014.4 |
| 20260903045504 | 73 | 153 | 5.0 | 17.0 | 0.00 | 0.00 | 0.00 | 19 | 1014.6 |
| 20260903045001 | 73 | 156 | 9.0 | 17.0 | 0.00 | 0.00 | 0.00 | 20 | 1014.5 |
| 20260903044456 | 73 | 176 | 10.0 | 15.0 | 0.00 | 0.00 | 0.00 | 21 | 1014.5 |
| 20260903043952 | 73 | 168 | 8.0 | 16.0 | 0.00 | 0.00 | 0.00 | 20 | 1014.5 |
| 20260903043448 | 74 | 156 | 10.0 | 14.0 | 0.00 | 0.00 | 0.00 | 20 | 1014.5 |
| 20260903042946 | 73 | 153 | 7.0 | 15.0 | 0.00 | 0.00 | 0.00 | 19 | 1014.6 |
| 20260903042442 | 73 | 137 | 10.0 | 15.0 | 0.00 | 0.00 | 0.00 | 23 | 1014.5 |
| 20260903041937 | 73 | 148 | 8.0 | 15.0 | 0.00 | 0.00 | 0.00 | 23 | 1014.2 |
| 20260903041434 | 73 | 158 | 11.0 | 15.0 | 0.00 | 0.00 | 0.00 | 23 | 1014.4 |
| 20260903040929 | 72 | 153 | 6.0 | 14.0 | 0.00 | 0.00 | 0.00 | 26 | 1014.4 |
| 20260903040428 | 73 | 136 | 13.0 | 21.0 | 0.00 | 0.00 | 0.00 | 25 | 1014.2 |
| 20260903035924 | 73 | 153 | 11.0 | 22.0 | 0.00 | 0.00 | 0.00 | 24 | 1014.1 |
| 20260903035420 | 73 | 159 | 9.0 | 16.0 | 0.00 | 0.00 | 0.00 | 25 | 1014.2 |
| 20260903034920 | 74 | 136 | 12.0 | 18.0 | 0.00 | 0.00 | 0.00 | 25 | 1014.1 |
| 20260903034415 | 74 | 149 | 6.0 | 17.0 | 0.00 | 0.00 | 0.00 | 22 | 1013.9 |
| 20260903033910 | 75 | 157 | 13.0 | 19.0 | 0.00 | 0.00 | 0.00 | 22 | 1013.9 |
| 20260903033405 | 75 | 150 | 8.0 | 16.0 | 0.00 | 0.00 | 0.00 | 22 | 1014.0 |
| 20260903032900 | 75 | 166 | 8.0 | 20.0 | 0.00 | 0.00 | 0.00 | 22 | 1014.4 |
| 20260903032356 | 75 | 157 | 7.0 | 15.0 | 0.00 | 0.00 | 0.00 | 22 | 1013.8 |
| 20260903031851 | 74 | 161 | 8.0 | 16.0 | 0.00 | 0.00 | 0.00 | 23 | 1014.0 |
| 20260903031350 | 74 | 165 | 10.0 | 14.0 | 0.00 | 0.00 | 0.00 | 22 | 1013.8 |
| 20260903030846 | 74 | 168 | 6.0 | 15.0 | 0.00 | 0.00 | 0.00 | 22 | 1013.8 |
| 20260903030342 | 75 | 180 | 8.0 | 13.0 | 0.00 | 0.00 | 0.00 | 21 | 1013.9 |
| 20260903025837 | 75 | 162 | 9.0 | 15.0 | 0.00 | 0.00 | 0.00 | 20 | 1013.7 |
| 20260903025332 | 75 | 150 | 11.0 | 15.0 | 0.00 | 0.00 | 0.00 | 21 | 1014.0 |
| 20260903024832 | 75 | 166 | 6.0 | 11.0 | 0.00 | 0.00 | 0.00 | 20 | 1013.7 |
| 20260903024331 | 75 | 135 | 7.0 | 13.0 | 0.00 | 0.00 | 0.00 | 20 | 1013.9 |
| 20260903023827 | 76 | 141 | 7.0 | 15.0 | 0.00 | 0.00 | 0.00 | 20 | 1013.8 |
| 20260903023323 | 76 | 156 | 8.0 | 12.0 | 0.00 | 0.00 | 0.00 | 19 | 1013.7 |
| 20260903022818 | 76 | 132 | 11.0 | 17.0 | 0.00 | 0.00 | 0.00 | 19 | 1013.6 |
| 20260903022317 | 76 | 148 | 6.0 | 13.0 | 0.00 | 0.00 | 0.00 | 20 | 1013.4 |
| 20260903021816 | 76 | 145 | 11.0 | 14.0 | 0.00 | 0.00 | 0.00 | 20 | 1013.6 |
| 20260903021312 | 76 | 170 | 6.0 | 15.0 | 0.00 | 0.00 | 0.00 | 20 | 1013.4 |
| 20260903020812 | 76 | 157 | 8.0 | 13.0 | 0.00 | 0.00 | 0.00 | 20 | 1013.7 |
| 20260903020307 | 76 | 163 | 7.0 | 13.0 | 0.00 | 0.00 | 0.00 | 20 | 1013.4 |
| 20260903015802 | 76 | 152 | 5.0 | 14.0 | 0.00 | 0.00 | 0.00 | 20 | 1013.6 |
| 20260903015257 | 77 | 142 | 9.0 | 11.0 | 0.00 | 0.00 | 0.00 | 20 | 1013.6 |
| 20260903014753 | 77 | 165 | 5.0 | 9.0 | 0.00 | 0.00 | 0.00 | 20 | 1013.7 |
| 20260903014252 | 78 | 160 | 6.0 | 10.0 | 0.00 | 0.00 | 0.00 | 18 | 1013.6 |
| 20260903013747 | 78 | 139 | 8.0 | 10.0 | 0.00 | 0.00 | 0.00 | 18 | 1013.8 |
| 20260903013246 | 78 | 179 | 8.0 | 9.0 | 0.00 | 0.00 | 0.00 | 17 | 1013.9 |
| 20260903012745 | 79 | 170 | 3.0 | 11.0 | 0.00 | 0.00 | 0.00 | 17 | 1013.7 |
| 20260903012245 | 79 | 171 | 8.0 | 11.0 | 0.00 | 0.00 | 0.00 | 18 | 1013.9 |
| 20260903011739 | 79 | 160 | 6.0 | 13.0 | 0.00 | 0.00 | 0.00 | 16 | 1013.8 |
| 20260903011234 | 80 | 168 | 7.0 | 17.0 | 0.00 | 0.00 | 0.00 | 16 | 1014.0 |
| 20260903010730 | 81 | 164 | 9.0 | 15.0 | 0.00 | 0.00 | 0.00 | 17 | 1014.0 |
| 20260903010230 | 81 | 164 | 8.0 | 15.0 | 0.00 | 0.00 | 0.00 | 18 | 1013.9 |
| 20260903005728 | 81 | 162 | 12.0 | 15.0 | 0.00 | 0.00 | 0.00 | 16 | 1014.0 |
| 20260903005223 | 81 | 193 | 8.0 | 14.0 | 0.00 | 0.00 | 0.00 | 17 | 1014.0 |
| 20260903004719 | 80 | 161 | 11.0 | 15.0 | 0.00 | 0.00 | 0.00 | 17 | 1014.0 |
| 20260903004214 | 79 | 140 | 8.0 | 10.0 | 0.00 | 0.00 | 0.00 | 18 | 1013.9 |
| 20260903003709 | 80 | 176 | 3.0 | 11.0 | 0.00 | 0.00 | 0.00 | 18 | 1014.1 |
| 20260903003204 | 80 | 180 | 4.0 | 11.0 | 0.00 | 0.00 | 0.00 | 18 | 1014.0 |
| 20260903002659 | 80 | 177 | 10.0 | 13.0 | 0.00 | 0.00 | 0.00 | 17 | 1014.4 |
| 20260903002154 | 81 | 203 | 2.0 | 9.0 | 0.00 | 0.00 | 0.00 | 19 | 1014.4 |
| 20260903001649 | 82 | 159 | 4.0 | 12.0 | 0.00 | 0.00 | 0.00 | 18 | 1014.2 |
| 20260903001148 | 82 | 204 | 7.0 | 13.0 | 0.00 | 0.00 | 0.00 | 16 | 1014.4 |
| 20260903000644 | 81 | 211 | 15.0 | 17.0 | 0.00 | 0.00 | 0.00 | 18 | 1014.1 |
| 20260903000143 | 81 | 174 | 12.0 | 19.0 | 0.00 | 0.00 | 0.00 | 17 | 1014.1 |
| 20260902235642 | 82 | 152 | 7.0 | 7.0 | 0.00 | 0.00 | 0.00 | 19 | 1014.1 |
| 20260902235138 | 82 | 240 | 7.0 | 17.0 | 0.00 | 0.00 | 0.00 | 18 | 1013.9 |
| 20260902234632 | 82 | 216 | 5.0 | 16.0 | 0.00 | 0.00 | 0.00 | 18 | 1014.4 |
| 20260902234130 | 83 | 223 | 9.0 | 13.0 | 0.00 | 0.00 | 0.00 | 18 | 1014.1 |
| 20260902233625 | 84 | 231 | 8.0 | 19.0 | 0.00 | 0.00 | 0.00 | 19 | 1014.4 |
| 20260902233119 | 84 | 175 | 3.0 | 11.0 | 0.00 | 0.00 | 0.00 | 20 | 1014.4 |
| 20260902232614 | 84 | 205 | 11.0 | 19.0 | 0.00 | 0.00 | 0.00 | 19 | 1014.5 |
| 20260902232113 | 84 | 239 | 9.0 | 15.0 | 0.00 | 0.00 | 0.00 | 19 | 1014.5 |
| 20260902231613 | 82 | 224 | 11.0 | 19.0 | 0.00 | 0.00 | 0.00 | 19 | 1014.4 |
| 20260902231112 | 81 | 185 | 3.0 | 22.0 | 0.00 | 0.00 | 0.00 | 19 | 1014.2 |
| 20260902230608 | 81 | 205 | 12.0 | 19.0 | 0.00 | 0.00 | 0.00 | 20 | 1014.4 |
| 20260902230106 | 82 | 201 | 8.0 | 22.0 | 0.00 | 0.00 | 0.00 | 18 | 1014.6 |
| 20260902225602 | 82 | 216 | 11.0 | 17.0 | 0.00 | 0.00 | 0.00 | 19 | 1014.6 |
| 20260902225101 | 82 | 165 | 11.0 | 18.0 | 0.00 | 0.00 | 0.00 | 18 | 1014.5 |
| 20260902224600 | 82 | 155 | 7.0 | 19.0 | 0.00 | 0.00 | 0.00 | 19 | 1014.4 |
| 20260902224056 | 82 | 149 | 7.0 | 11.0 | 0.00 | 0.00 | 0.00 | 21 | 1014.2 |
| 20260902223552 | 82 | 175 | 8.0 | 14.0 | 0.00 | 0.00 | 0.00 | 21 | 1014.5 |
| 20260902223051 | 82 | 183 | 10.0 | 16.0 | 0.00 | 0.00 | 0.00 | 20 | 1014.5 |
| 20260902222550 | 82 | 191 | 11.0 | 19.0 | 0.00 | 0.00 | 0.00 | 20 | 1014.4 |
| 20260902222049 | 82 | 217 | 5.0 | 17.0 | 0.00 | 0.00 | 0.00 | 20 | 1014.6 |
| 20260902221544 | 83 | 146 | 6.0 | 13.0 | 0.00 | 0.00 | 0.00 | 20 | 1014.5 |
| 20260902221039 | 82 | 179 | 9.0 | 12.0 | 0.00 | 0.00 | 0.00 | 22 | 1014.8 |
| 20260902220534 | 81 | 164 | 11.0 | 22.0 | 0.00 | 0.00 | 0.00 | 23 | 1014.5 |
| 20260902220029 | 81 | 188 | 8.0 | 19.0 | 0.00 | 0.00 | 0.00 | 21 | 1014.6 |
| 20260902215525 | 81 | 169 | 11.0 | 11.0 | 0.00 | 0.00 | 0.00 | 24 | 1014.8 |
| 20260902215020 | 82 | 160 | 13.0 | 15.0 | 0.00 | 0.00 | 0.00 | 23 | 1015.1 |
| 20260902214520 | 82 | 210 | 12.0 | 13.0 | 0.00 | 0.00 | 0.00 | 22 | 1014.7 |
| 20260902214019 | 82 | 223 | 4.0 | 17.0 | 0.00 | 0.00 | 0.00 | 24 | 1015.1 |
| 20260902213515 | 82 | 182 | 3.0 | 18.0 | 0.00 | 0.00 | 0.00 | 24 | 1014.9 |
| 20260902213014 | 82 | 153 | 7.0 | 10.0 | 0.00 | 0.00 | 0.00 | 22 | 1014.7 |
| 20260902212510 | 83 | 212 | 16.0 | 22.0 | 0.00 | 0.00 | 0.00 | 22 | 1015.1 |
| 20260902212006 | 82 | 193 | 7.0 | 14.0 | 0.00 | 0.00 | 0.00 | 22 | 1014.9 |
| 20260902211502 | 83 | 180 | 14.0 | 25.0 | 0.00 | 0.00 | 0.00 | 22 | 1014.9 |
| 20260902210956 | 82 | 183 | 6.0 | 13.0 | 0.00 | 0.00 | 0.00 | 24 | 1014.8 |
| 20260902210451 | 82 | 176 | 10.0 | 20.0 | 0.00 | 0.00 | 0.00 | 22 | 1015.2 |
| 20260902205950 | 82 | 166 | 11.0 | 25.0 | 0.00 | 0.00 | 0.00 | 21 | 1014.9 |
| 20260902205449 | 82 | 197 | 11.0 | 12.0 | 0.00 | 0.00 | 0.00 | 23 | 1015.2 |
| 20260902204945 | 82 | 163 | 12.0 | 20.0 | 0.00 | 0.00 | 0.00 | 23 | 1015.2 |
| 20260902204444 | 83 | 176 | 15.0 | 22.0 | 0.00 | 0.00 | 0.00 | 23 | 1015.2 |
| 20260902203940 | 83 | 193 | 5.0 | 12.0 | 0.00 | 0.00 | 0.00 | 24 | 1015.3 |
| 20260902203436 | 83 | 155 | 16.0 | 19.0 | 0.00 | 0.00 | 0.00 | 23 | 1015.2 |
| 20260902202935 | 83 | 196 | 13.0 | 22.0 | 0.00 | 0.00 | 0.00 | 22 | 1015.2 |
| 20260902202431 | 83 | 216 | 7.0 | 24.0 | 0.00 | 0.00 | 0.00 | 22 | 1015.1 |
| 20260902201928 | 83 | 203 | 12.0 | 17.0 | 0.00 | 0.00 | 0.00 | 23 | 1015.4 |
| 20260902201423 | 82 | 211 | 4.0 | 15.0 | 0.00 | 0.00 | 0.00 | 22 | 1015.4 |
| 20260902200922 | 82 | 143 | 6.0 | 23.0 | 0.00 | 0.00 | 0.00 | 23 | 1015.4 |
| 20260902200418 | 82 | 156 | 28.0 | 32.0 | 0.00 | 0.00 | 0.00 | 24 | 1015.6 |
| 20260902195914 | 82 | 158 | 22.0 | 26.0 | 0.00 | 0.00 | 0.00 | 22 | 1015.6 |
| 20260902195414 | 82 | 188 | 9.0 | 18.0 | 0.00 | 0.00 | 0.00 | 25 | 1016.0 |
| 20260902194908 | 82 | 192 | 13.0 | 21.0 | 0.00 | 0.00 | 0.00 | 25 | 1015.6 |
| 20260902194409 | 82 | 175 | 14.0 | 22.0 | 0.00 | 0.00 | 0.00 | 24 | 1015.9 |
| 20260902193909 | 82 | 169 | 8.0 | 19.0 | 0.00 | 0.00 | 0.00 | 25 | 1015.9 |
| 20260902193406 | 82 | 156 | 14.0 | 18.0 | 0.00 | 0.00 | 0.00 | 26 | 1015.7 |
| 20260902192904 | 81 | 171 | 13.0 | 24.0 | 0.00 | 0.00 | 0.00 | 26 | 1015.9 |
| 20260902192403 | 81 | 168 | 19.0 | 27.0 | 0.00 | 0.00 | 0.00 | 27 | 1016.2 |
| 20260902191902 | 81 | 153 | 5.0 | 22.0 | 0.00 | 0.00 | 0.00 | 27 | 1016.2 |
| 20260902191358 | 81 | 191 | 10.0 | 21.0 | 0.00 | 0.00 | 0.00 | 26 | 1016.4 |
| 20260902190858 | 81 | 167 | 11.0 | 24.0 | 0.00 | 0.00 | 0.00 | 28 | 1016.3 |
| 20260902190353 | 81 | 159 | 17.0 | 30.0 | 0.00 | 0.00 | 0.00 | 25 | 1016.3 |
| 20260902185849 | 82 | 151 | 12.0 | 19.0 | 0.00 | 0.00 | 0.00 | 27 | 1016.7 |
| 20260902185344 | 82 | 173 | 6.0 | 22.0 | 0.00 | 0.00 | 0.00 | 27 | 1016.9 |
| 20260902184840 | 82 | 172 | 10.0 | 19.0 | 0.00 | 0.00 | 0.00 | 28 | 1016.9 |
| 20260902184335 | 81 | 142 | 7.0 | 15.0 | 0.00 | 0.00 | 0.00 | 29 | 1016.8 |
| 20260902183830 | 80 | 143 | 17.0 | 26.0 | 0.00 | 0.00 | 0.00 | 29 | 1016.6 |
| 20260902183327 | 81 | 176 | 14.0 | 28.0 | 0.00 | 0.00 | 0.00 | 29 | 1017.0 |
| 20260902182822 | 82 | 160 | 11.0 | 16.0 | 0.00 | 0.00 | 0.00 | 30 | 1016.9 |
| 20260902182319 | 81 | 174 | 9.0 | 15.0 | 0.00 | 0.00 | 0.00 | 31 | 1016.7 |
| 20260902181815 | 81 | 160 | 9.0 | 15.0 | 0.00 | 0.00 | 0.00 | 30 | 1016.8 |
| 20260902181309 | 81 | 213 | 21.0 | 23.0 | 0.00 | 0.00 | 0.00 | 29 | 1016.9 |
| 20260902180803 | 80 | 157 | 8.0 | 16.0 | 0.00 | 0.00 | 0.00 | 32 | 1016.8 |
| 20260902180259 | 80 | 250 | 2.0 | 19.0 | 0.00 | 0.00 | 0.00 | 32 | 1016.9 |
| 20260902175754 | 81 | 161 | 19.0 | 21.0 | 0.00 | 0.00 | 0.00 | 31 | 1017.1 |
| 20260902175250 | 81 | 174 | 14.0 | 22.0 | 0.00 | 0.00 | 0.00 | 30 | 1016.9 |
| 20260902174745 | 80 | 221 | 4.0 | 18.0 | 0.00 | 0.00 | 0.00 | 32 | 1017.3 |
| 20260902174242 | 80 | 174 | 17.0 | 20.0 | 0.00 | 0.00 | 0.00 | 32 | 1017.4 |
| 20260902173737 | 79 | 170 | 13.0 | 22.0 | 0.00 | 0.00 | 0.00 | 32 | 1017.3 |
| 20260902173236 | 79 | 168 | 15.0 | 25.0 | 0.00 | 0.00 | 0.00 | 33 | 1017.1 |
| 20260902172731 | 79 | 177 | 15.0 | 29.0 | 0.00 | 0.00 | 0.00 | 32 | 1017.5 |
| 20260902172231 | 78 | 210 | 17.0 | 23.0 | 0.00 | 0.00 | 0.00 | 35 | 1017.4 |
| 20260902171726 | 77 | 170 | 10.0 | 17.0 | 0.00 | 0.00 | 0.00 | 36 | 1017.4 |
| 20260902171221 | 74 | 167 | 15.0 | 17.0 | 0.00 | 0.00 | 0.00 | 40 | 1017.3 |
| 20260902170718 | 74 | 180 | 9.0 | 13.0 | 0.00 | 0.00 | 0.00 | 40 | 1017.4 |
| 20260902170214 | 74 | 191 | 4.0 | 9.0 | 0.00 | 0.00 | 0.00 | 40 | 1017.3 |
| 20260902165714 | 73 | 142 | 10.0 | 15.0 | 0.00 | 0.00 | 0.00 | 41 | 1017.4 |
| 20260902165208 | 73 | 152 | 5.0 | 16.0 | 0.00 | 0.00 | 0.00 | 41 | 1017.3 |
| 20260902164703 | 73 | 154 | 5.0 | 14.0 | 0.00 | 0.00 | 0.00 | 41 | 1017.3 |
| 20260902164202 | 75 | 139 | 9.0 | 20.0 | 0.00 | 0.00 | 0.00 | 39 | 1017.1 |
| 20260902163657 | 75 | 122 | 9.0 | 17.0 | 0.00 | 0.00 | 0.00 | 40 | 1016.9 |
| 20260902163157 | 75 | 135 | 15.0 | 19.0 | 0.00 | 0.00 | 0.00 | 39 | 1017.3 |
| 20260902162655 | 76 | 121 | 17.0 | 21.0 | 0.00 | 0.00 | 0.00 | 38 | 1017.3 |
| 20260902162150 | 75 | 178 | 5.0 | 12.0 | 0.00 | 0.00 | 0.00 | 39 | 1017.3 |
| 20260902161645 | 75 | 116 | 8.0 | 16.0 | 0.00 | 0.00 | 0.00 | 39 | 1017.5 |
| 20260902161141 | 74 | 148 | 9.0 | 19.0 | 0.00 | 0.00 | 0.00 | 40 | 1017.6 |
| 20260902160638 | 74 | 142 | 7.0 | 23.0 | 0.00 | 0.00 | 0.00 | 39 | 1017.4 |
| 20260902160132 | 74 | 135 | 9.0 | 21.0 | 0.00 | 0.00 | 0.00 | 39 | 1017.1 |
| 20260902155630 | 73 | 166 | 8.0 | 15.0 | 0.00 | 0.00 | 0.00 | 41 | 1017.1 |
| 20260902155129 | 71 | 127 | 13.0 | 17.0 | 0.00 | 0.00 | 0.00 | 42 | 1017.4 |
| 20260902154625 | 72 | 165 | 8.0 | 20.0 | 0.00 | 0.00 | 0.00 | 40 | 1017.4 |
| 20260902154119 | 72 | 153 | 10.0 | 21.0 | 0.00 | 0.00 | 0.00 | 41 | 1017.6 |
| 20260902153619 | 71 | 129 | 18.0 | 27.0 | 0.00 | 0.00 | 0.00 | 41 | 1017.7 |
| 20260902153115 | 71 | 136 | 10.0 | 20.0 | 0.00 | 0.00 | 0.00 | 42 | 1017.3 |
| 20260902152611 | 70 | 123 | 12.0 | 15.0 | 0.00 | 0.00 | 0.00 | 42 | 1017.3 |
| 20260902152106 | 70 | 172 | 9.0 | 14.0 | 0.00 | 0.00 | 0.00 | 43 | 1017.0 |
| 20260902151602 | 70 | 148 | 13.0 | 18.0 | 0.00 | 0.00 | 0.00 | 43 | 1017.0 |
| 20260902151101 | 69 | 165 | 13.0 | 21.0 | 0.00 | 0.00 | 0.00 | 44 | 1017.1 |
| 20260902150556 | 69 | 180 | 5.0 | 14.0 | 0.00 | 0.00 | 0.00 | 46 | 1017.1 |
| 20260902150052 | 69 | 156 | 9.0 | 20.0 | 0.00 | 0.00 | 0.00 | 45 | 1016.9 |
| 20260902145552 | 69 | 152 | 11.0 | 19.0 | 0.00 | 0.00 | 0.00 | 45 | 1017.0 |
| 20260902145051 | 69 | 127 | 14.0 | 18.0 | 0.00 | 0.00 | 0.00 | 45 | 1017.0 |
| 20260902144549 | 69 | 135 | 8.0 | 14.0 | 0.00 | 0.00 | 0.00 | 45 | 1016.9 |
| 20260902144048 | 69 | 165 | 6.0 | 13.0 | 0.00 | 0.00 | 0.00 | 45 | 1017.0 |
| 20260902143543 | 69 | 167 | 4.0 | 20.0 | 0.00 | 0.00 | 0.00 | 44 | 1017.0 |
| 20260902143039 | 69 | 168 | 5.0 | 19.0 | 0.00 | 0.00 | 0.00 | 44 | 1017.0 |
| 20260902142534 | 69 | 145 | 8.0 | 22.0 | 0.00 | 0.00 | 0.00 | 45 | 1017.0 |
| 20260902142031 | 68 | 153 | 8.0 | 23.0 | 0.00 | 0.00 | 0.00 | 45 | 1016.8 |
| 20260902141530 | 68 | 135 | 22.0 | 23.0 | 0.00 | 0.00 | 0.00 | 47 | 1016.8 |
| 20260902141026 | 68 | 136 | 10.0 | 20.0 | 0.00 | 0.00 | 0.00 | 48 | 1016.7 |
| 20260902140525 | 68 | 147 | 9.0 | 20.0 | 0.00 | 0.00 | 0.00 | 48 | 1016.9 |
| 20260902140021 | 67 | 157 | 11.0 | 21.0 | 0.00 | 0.00 | 0.00 | 49 | 1016.6 |
| 20260902135520 | 67 | 163 | 12.0 | 18.0 | 0.00 | 0.00 | 0.00 | 49 | 1016.6 |
| 20260902135015 | 67 | 163 | 13.0 | 18.0 | 0.00 | 0.00 | 0.00 | 50 | 1016.4 |
| 20260902134511 | 67 | 144 | 13.0 | 24.0 | 0.00 | 0.00 | 0.00 | 49 | 1016.4 |
| 20260902134011 | 67 | 138 | 11.0 | 20.0 | 0.00 | 0.00 | 0.00 | 48 | 1016.7 |
| 20260902133506 | 68 | 135 | 10.0 | 17.0 | 0.00 | 0.00 | 0.00 | 48 | 1016.7 |
| 20260902133006 | 68 | 141 | 16.0 | 18.0 | 0.00 | 0.00 | 0.00 | 47 | 1016.8 |
| 20260902132501 | 68 | 145 | 16.0 | 18.0 | 0.00 | 0.00 | 0.00 | 46 | 1016.6 |
| 20260902131956 | 69 | 163 | 11.0 | 15.0 | 0.00 | 0.00 | 0.00 | 45 | 1016.4 |
| 20260902131453 | 69 | 159 | 11.0 | 20.0 | 0.00 | 0.00 | 0.00 | 44 | 1016.6 |
| 20260902130952 | 69 | 163 | 9.0 | 17.0 | 0.00 | 0.00 | 0.00 | 44 | 1016.6 |
| 20260902130448 | 69 | 144 | 17.0 | 18.0 | 0.00 | 0.00 | 0.00 | 44 | 1016.6 |
| 20260902125943 | 69 | 160 | 8.0 | 19.0 | 0.00 | 0.00 | 0.00 | 44 | 1016.4 |
| 20260902125439 | 69 | 164 | 13.0 | 17.0 | 0.00 | 0.00 | 0.00 | 44 | 1016.6 |
| 20260902124935 | 69 | 173 | 4.0 | 17.0 | 0.00 | 0.00 | 0.00 | 44 | 1016.4 |
| 20260902124431 | 68 | 154 | 16.0 | 17.0 | 0.00 | 0.00 | 0.00 | 45 | 1016.3 |
| 20260902123925 | 68 | 152 | 5.0 | 16.0 | 0.00 | 0.00 | 0.00 | 45 | 1016.2 |
| 20260902123422 | 68 | 146 | 15.0 | 20.0 | 0.00 | 0.00 | 0.00 | 45 | 1016.4 |
| 20260902122920 | 68 | 167 | 7.0 | 15.0 | 0.00 | 0.00 | 0.00 | 46 | 1016.4 |
| 20260902122416 | 68 | 170 | 7.0 | 14.0 | 0.00 | 0.00 | 0.00 | 46 | 1016.4 |
| 20260902121911 | 68 | 150 | 9.0 | 15.0 | 0.00 | 0.00 | 0.00 | 46 | 1016.4 |
| 20260902121406 | 68 | 167 | 9.0 | 17.0 | 0.00 | 0.00 | 0.00 | 47 | 1016.4 |
| 20260902120901 | 67 | 151 | 13.0 | 20.0 | 0.00 | 0.00 | 0.00 | 47 | 1016.4 |
| 20260902120358 | 67 | 152 | 17.0 | 19.0 | 0.00 | 0.00 | 0.00 | 47 | 1016.7 |
| 20260902115858 | 68 | 140 | 8.0 | 18.0 | 0.00 | 0.00 | 0.00 | 48 | 1016.3 |
| 20260902115354 | 68 | 177 | 10.0 | 19.0 | 0.00 | 0.00 | 0.00 | 47 | 1016.1 |
| 20260902114850 | 68 | 170 | 7.0 | 16.0 | 0.00 | 0.00 | 0.00 | 46 | 1016.0 |
| 20260902114346 | 68 | 173 | 7.0 | 20.0 | 0.00 | 0.00 | 0.00 | 46 | 1016.1 |
| 20260902113845 | 68 | 157 | 9.0 | 18.0 | 0.00 | 0.00 | 0.00 | 47 | 1016.2 |
| 20260902113341 | 68 | 162 | 9.0 | 21.0 | 0.00 | 0.00 | 0.00 | 47 | 1016.1 |
| 20260902112840 | 68 | 152 | 9.0 | 16.0 | 0.00 | 0.00 | 0.00 | 47 | 1016.3 |
| 20260902112337 | 68 | 141 | 10.0 | 17.0 | 0.00 | 0.00 | 0.00 | 47 | 1016.4 |
| 20260902111833 | 69 | 162 | 19.0 | 22.0 | 0.00 | 0.00 | 0.00 | 46 | 1016.2 |
| 20260902111329 | 69 | 163 | 15.0 | 20.0 | 0.00 | 0.00 | 0.00 | 45 | 1016.0 |
| 20260902110824 | 69 | 146 | 13.0 | 18.0 | 0.00 | 0.00 | 0.00 | 45 | 1016.2 |
| 20260902110320 | 69 | 148 | 16.0 | 19.0 | 0.00 | 0.00 | 0.00 | 44 | 1016.1 |
| 20260902105820 | 69 | 149 | 19.0 | 19.0 | 0.00 | 0.00 | 0.00 | 44 | 1016.2 |
| 20260902105315 | 69 | 163 | 12.0 | 22.0 | 0.00 | 0.00 | 0.00 | 44 | 1016.1 |
| 20260902104810 | 69 | 158 | 15.0 | 20.0 | 0.00 | 0.00 | 0.00 | 44 | 1016.1 |
| 20260902104306 | 69 | 175 | 12.0 | 19.0 | 0.00 | 0.00 | 0.00 | 43 | 1016.1 |
| 20260902103800 | 69 | 159 | 5.0 | 15.0 | 0.00 | 0.00 | 0.00 | 43 | 1016.0 |
| 20260902103300 | 69 | 164 | 6.0 | 17.0 | 0.00 | 0.00 | 0.00 | 43 | 1016.0 |
| 20260902102755 | 69 | 182 | 9.0 | 17.0 | 0.00 | 0.00 | 0.00 | 42 | 1016.1 |
| 20260902102253 | 69 | 148 | 7.0 | 22.0 | 0.00 | 0.00 | 0.00 | 42 | 1016.0 |
| 20260902101748 | 70 | 150 | 9.0 | 15.0 | 0.00 | 0.00 | 0.00 | 41 | 1015.9 |
| 20260902101243 | 69 | 155 | 17.0 | 18.0 | 0.00 | 0.00 | 0.00 | 41 | 1016.0 |
| 20260902100742 | 69 | 180 | 10.0 | 17.0 | 0.00 | 0.00 | 0.00 | 41 | 1016.2 |
| 20260902100237 | 69 | 156 | 13.0 | 16.0 | 0.00 | 0.00 | 0.00 | 41 | 1016.2 |
| 20260902095737 | 69 | 162 | 11.0 | 14.0 | 0.00 | 0.00 | 0.00 | 41 | 1016.1 |
| 20260902095232 | 69 | 166 | 9.0 | 14.0 | 0.00 | 0.00 | 0.00 | 41 | 1015.9 |
| 20260902094726 | 70 | 158 | 9.0 | 13.0 | 0.00 | 0.00 | 0.00 | 41 | 1016.1 |
| 20260902094223 | 69 | 179 | 8.0 | 15.0 | 0.00 | 0.00 | 0.00 | 41 | 1016.3 |
| 20260902093722 | 69 | 156 | 7.0 | 13.0 | 0.00 | 0.00 | 0.00 | 42 | 1016.4 |
| 20260902093218 | 69 | 163 | 6.0 | 13.0 | 0.00 | 0.00 | 0.00 | 41 | 1016.3 |
| 20260902092717 | 69 | 161 | 10.0 | 14.0 | 0.00 | 0.00 | 0.00 | 40 | 1016.4 |
| 20260902092212 | 69 | 160 | 8.0 | 15.0 | 0.00 | 0.00 | 0.00 | 41 | 1016.3 |
| 20260902091712 | 69 | 153 | 13.0 | 16.0 | 0.00 | 0.00 | 0.00 | 41 | 1016.4 |
| 20260902091208 | 69 | 147 | 7.0 | 17.0 | 0.00 | 0.00 | 0.00 | 42 | 1016.3 |
| 20260902090704 | 69 | 183 | 12.0 | 16.0 | 0.00 | 0.00 | 0.00 | 42 | 1016.6 |
| 20260902090204 | 69 | 167 | 9.0 | 15.0 | 0.00 | 0.00 | 0.00 | 41 | 1016.6 |
| 20260902085703 | 69 | 165 | 8.0 | 17.0 | 0.00 | 0.00 | 0.00 | 42 | 1016.6 |
| 20260902085159 | 69 | 163 | 8.0 | 16.0 | 0.00 | 0.00 | 0.00 | 42 | 1016.6 |
| 20260902084654 | 69 | 167 | 9.0 | 15.0 | 0.00 | 0.00 | 0.00 | 42 | 1016.4 |
| 20260902084151 | 70 | 170 | 9.0 | 15.0 | 0.00 | 0.00 | 0.00 | 41 | 1016.4 |
| 20260902083645 | 70 | 180 | 7.0 | 15.0 | 0.00 | 0.00 | 0.00 | 40 | 1016.6 |
| 20260902083144 | 70 | 159 | 8.0 | 16.0 | 0.00 | 0.00 | 0.00 | 40 | 1016.6 |
| 20260902082640 | 70 | 173 | 11.0 | 17.0 | 0.00 | 0.00 | 0.00 | 42 | 1016.6 |
| 20260902082137 | 70 | 170 | 10.0 | 14.0 | 0.00 | 0.00 | 0.00 | 41 | 1016.6 |
| 20260902081633 | 69 | 166 | 9.0 | 17.0 | 0.00 | 0.00 | 0.00 | 43 | 1016.4 |
| 20260902081127 | 69 | 180 | 9.0 | 18.0 | 0.00 | 0.00 | 0.00 | 43 | 1016.6 |
| 20260902080623 | 69 | 169 | 7.0 | 15.0 | 0.00 | 0.00 | 0.00 | 44 | 1016.7 |
| 20260902080120 | 69 | 170 | 7.0 | 17.0 | 0.00 | 0.00 | 0.00 | 45 | 1016.8 |
| 20260902075619 | 69 | 169 | 11.0 | 15.0 | 0.00 | 0.00 | 0.00 | 45 | 1016.8 |
| 20260902075115 | 69 | 162 | 7.0 | 15.0 | 0.00 | 0.00 | 0.00 | 45 | 1016.4 |
| 20260902074610 | 69 | 175 | 8.0 | 14.0 | 0.00 | 0.00 | 0.00 | 46 | 1016.7 |
| 20260902074105 | 69 | 153 | 16.0 | 17.0 | 0.00 | 0.00 | 0.00 | 47 | 1016.7 |
| 20260902073601 | 69 | 177 | 10.0 | 15.0 | 0.00 | 0.00 | 0.00 | 47 | 1016.6 |
| 20260902073057 | 69 | 164 | 8.0 | 18.0 | 0.00 | 0.00 | 0.00 | 46 | 1016.6 |
| 20260902072552 | 69 | 159 | 13.0 | 17.0 | 0.00 | 0.00 | 0.00 | 47 | 1016.2 |
| 20260902072049 | 70 | 153 | 9.0 | 20.0 | 0.00 | 0.00 | 0.00 | 46 | 1016.4 |
| 20260902071548 | 70 | 169 | 13.0 | 17.0 | 0.00 | 0.00 | 0.00 | 46 | 1016.4 |
| 20260902071045 | 70 | 162 | 11.0 | 18.0 | 0.00 | 0.00 | 0.00 | 46 | 1016.4 |
| 20260902070540 | 70 | 151 | 8.0 | 17.0 | 0.00 | 0.00 | 0.00 | 47 | 1016.4 |
| 20260902070035 | 70 | 158 | 8.0 | 18.0 | 0.00 | 0.00 | 0.00 | 46 | 1016.3 |
| 20260902065529 | 70 | 135 | 9.0 | 18.0 | 0.00 | 0.00 | 0.00 | 47 | 1016.3 |
| 20260902065024 | 70 | 155 | 13.0 | 17.0 | 0.00 | 0.00 | 0.00 | 47 | 1016.2 |
| 20260902064520 | 70 | 158 | 7.0 | 21.0 | 0.00 | 0.00 | 0.00 | 48 | 1016.3 |
| 20260902064016 | 70 | 157 | 10.0 | 17.0 | 0.00 | 0.00 | 0.00 | 48 | 1016.2 |